Location: Arleux
(50.3632°N, 2.8721°E)
Time: 19:11:25
(UTC+00:00)

Daily predictions for brighter satellites

Satellite Brightness Start Highest point End
(mag) Time Altitude Azimuth Time Altitude Azimuth Time Altitude Azimuth
BREEZE-M R/B 2.7 19:58:35 10° SW 20:00:58 28° SSE 20:03:09 10° E
CZ-4C R/B 3.2 19:55:42 10° NW 20:02:31 62° NE 20:10:35 10° ESE
Cosmos 1500 4.3 20:06:29 10° N 20:09:47 28° ENE 20:13:03 10° SE
NOSS 3-4 (A) 4.5 20:05:31 10° NW 20:11:56 46° NNE 20:19:07 10° ESE
Cosmos 2082 Rocket 3.5 20:07:43 10° NNW 20:12:33 28° NE 20:17:21 10° ESE
Cosmos 1437 Rocket 3.1 20:09:34 10° SSW 20:13:25 71° WNW 20:17:25 10° N
Cosmos 1805 Rocket 4.1 20:11:15 10° NNW 20:15:33 60° W 20:19:51 10° S
COSMOS 2406 3.8 20:10:43 10° NNW 20:16:11 47° NE 20:21:35 10° SE
Cosmos 1933 3.3 20:13:19 10° S 20:17:20 72° E 20:21:22 10° NNE
Cosmos 1354 Rocket 4.2 20:12:32 10° S 20:17:36 53° ESE 20:22:42 10° NNE
Cosmos 968 Rocket 4.0 20:13:38 10° SSW 20:18:52 68° WNW 20:24:05 10° NNE
SPOT 1/Viking Rocket 3.8 20:14:37 10° SE 20:19:41 55° ENE 20:24:46 10° N
Meteor 1-20 Rocket 4.3 20:14:22 10° NNW 20:20:02 81° W 20:25:33 10° S
Cosmos 1633 Rocket 3.1 20:18:09 10° N 20:22:33 64° ENE 20:26:55 10° SSE
IGS 5A 3.4 20:18:39 10° SSE 20:22:48 87° ENE 20:26:59 10° NNW
NOSS 3-3 (A) 4.3 20:17:56 10° S 20:23:18 42° ESE 20:29:22 10° NE
NOSS 3-3 (C) 4.3 20:18:04 10° S 20:23:25 41° ESE 20:29:28 10° NE
ATLAS 2AS CENTAUR R/B 3.9 20:18:08 10° NW 20:25:15 40° NNE 20:31:53 10° E
USA 305 3.2 20:21:41 10° WNW 20:25:57 68° NNE 20:30:12 10° ESE
OBJECT-B 3.6 20:30:02 10° SW 20:32:12 16° W 20:34:22 10° NW
ARIANE 5 R/B 3.1 20:29:17 12° SE 20:33:02 46° ENE 20:37:12 10° N
Cosmos 1470 Rocket 3.9 20:29:23 10° N 20:33:46 50° ENE 20:37:34 13° SSE
SPOT 3 Rocket 3.7 20:28:47 10° S 20:33:57 76° WSW 20:39:07 10° NNW
Cosmos 1782 2.8 20:30:33 10° S 20:34:29 61° E 20:38:26 10° NNE
Cosmos 1328 Rocket 3.8 20:30:39 10° S 20:34:56 51° E 20:39:14 10° NNE
Gbstr 26 Del rocket 4.5 20:28:34 10° W 20:36:32 81° N 20:43:21 10° E
USA 215 4.1 20:31:03 10° ENE 20:37:18 50° N 20:43:34 10° WNW
Cosmos 1602 3.9 20:33:48 10° NNW 20:37:40 76° W 20:41:32 10° S
Cosmos 2278 Rocket 2.9 20:35:06 10° SSE 20:40:02 32° ESE 20:44:58 10° NE
CZ-2C R/B 3.7 20:36:38 10° NNE 20:41:05 63° ESE 20:45:34 10° S
MetOp-B 4.2 20:36:34 10° SSE 20:41:56 82° WSW 20:47:20 10° NNW
CARTOSAT-1 3.8 20:40:09 14° SE 20:43:38 54° ENE 20:47:52 10° N
Cosmos 1437 2.7 20:41:33 14° S 20:43:44 46° E 20:46:29 10° NNE
Cosmos 1709 Rocket 4.1 20:37:48 10° NNW 20:43:57 81° W 20:50:03 10° S
USA 306 3.0 20:40:56 10° WNW 20:45:13 79° NNE 20:48:57 13° ESE
Cosmos 1844 Rocket 3.5 20:41:26 10° SW 20:46:53 54° NW 20:52:24 10° NNE
Cosmos 1933 Rocket 4.0 20:43:55 10° N 20:48:07 46° ENE 20:51:10 17° SE
Cosmos 1538 Rocket 4.2 20:44:19 10° NNW 20:49:41 62° ENE 20:53:47 17° SE
Cosmos 1666 Rocket 4.1 20:45:40 10° NNW 20:50:00 58° W 20:54:16 10° S
Cosmos 2074 Rocket 4.4 20:45:20 10° N 20:51:29 51° ENE 20:56:21 16° SE
Terra 2.6 20:49:51 16° SE 20:53:12 39° ENE 20:57:37 10° N
SPOT 5 3.3 20:50:15 16° SE 20:54:11 55° ENE 20:59:23 10° N
ERBS 4.4 20:51:52 10° NW 20:54:41 25° N 20:57:31 10° ENE
Cosmos 773 Rocket 4.2 20:51:01 10° NNW 20:56:18 70° WSW 21:00:48 14° SSE
X-37B 2.4 20:57:34 10° WSW 20:59:53 18° SSW 21:00:38 17° S
Cosmos 1242 Rocket 3.9 20:58:15 10° SW 21:01:39 40° WNW 21:05:01 10° N
USA 245 2.5 21:01:53 24° S 21:03:00 51° WSW 21:05:13 10° NNW
Spot 2 Rocket 3.5 20:59:31 15° SSE 21:03:46 86° WSW 21:08:51 10° NNW
ATLAS 5 CENTAUR R/B 3.4 20:59:38 10° NW 21:04:48 37° WSW 21:10:12 12° S
Cosmos 1812 2.8 21:02:05 17° S 21:04:58 61° E 21:08:48 10° NNE
Cosmos 2315 Rocket 4.2 21:01:25 10° SSW 21:07:48 78° W 21:14:14 10° N
SJ 16-02 1.9 21:05:55 19° SSE 21:08:31 38° ESE 21:12:38 10° NE
H-2A R/B 4.4 21:06:04 10° NNE 21:09:49 31° E 21:11:29 23° SE
USA 307 2.8 21:07:09 10° WNW 21:11:26 84° SSW 21:14:12 22° ESE
Cosmos 1536 3.9 21:09:28 10° N 21:13:08 31° ENE 21:14:58 22° ESE
ERS-1 Rocket 2.9 21:10:30 19° SSE 21:14:05 80° ENE 21:19:09 10° NNW
Meteor 1-10 Rocket 4.4 21:11:23 17° SSE 21:15:29 53° E 21:21:00 10° NNE
Meteor 1-5 Rocket 4.1 21:10:08 10° NNW 21:15:35 85° W 21:19:33 18° S
Cosmos 1666 2.5 21:11:56 10° N 21:15:42 77° E 21:17:42 26° SSE
Cosmos 1833 Rocket 2.8 21:13:43 10° NNW 21:19:22 71° WSW 21:23:15 21° SSE
deb Kosmos-1763 3.9 21:16:25 10° NNW 21:19:59 83° WSW 21:21:39 29° SSE
JB-3 4.2 21:17:14 10° NNE 21:21:11 82° ESE 21:23:58 18° S
Resurs 01 Rocket 3.6 21:18:04 10° SSW 21:21:40 24° W 21:25:18 10° NW
USA 308 2.9 21:20:42 10° WNW 21:25:00 73° SSW 21:27:15 27° SE
CREW DRAGON DEMO-1 DEB 2.6 21:22:50 10° W 21:25:25 51° SSW 21:25:38 49° S
Cosmos 2228 Rocket 3.6 21:23:47 26° SSE 21:25:49 43° E 21:30:04 10° NNE
Cosmos 1743 4.2 21:24:04 10° NNE 21:27:16 24° ENE 21:28:35 20° E
Cosmos 1151 Rocket 4.3 21:23:42 10° SW 21:27:49 40° WNW 21:31:58 10° N
Cosmos 1777 Rocket 4.0 21:24:29 10° SSW 21:29:42 84° WNW 21:34:56 10° NNE
Cosmos 2084 3.6 21:33:46 10° SW 21:37:56 73° NW 21:42:13 10° NE
BREEZE M DEB (TANK) 2.1 21:37:15 10° W 21:40:27 38° SSW 21:40:27 38° SSW
Cosmos 923 Rocket 4.0 21:37:21 10° NNW 21:42:38 76° ENE 21:45:24 29° SSE
Cosmos 1898 Rocket 4.4 21:44:07 27° SE 21:45:37 31° E 21:50:16 10° NE
Cosmos 2084 Rocket 4.4 21:45:02 10° NW 21:49:03 41° NE 21:51:44 19° E
CZ-4C R/B 3.5 21:44:18 10° NW 21:51:12 48° WSW 21:56:21 22° S
Cosmos 1515 Rocket 4.5 21:50:23 12° SSW 21:54:21 46° WNW 21:58:36 10° N
Cosmos 1869 Rocket 3.5 21:52:33 10° NNW 21:56:55 83° W 21:58:40 36° S
Cosmos 2082 Rocket 2.3 21:51:32 10° NNW 21:57:08 69° WSW 21:59:58 30° S
COSMOS 2406 4.3 21:55:16 10° NW 22:00:24 36° WSW 22:03:39 20° SSW
Cosmos 990 Rocket 4.2 22:00:06 33° SSE 22:02:06 50° ESE 22:07:11 10° NNE
Cosmos 1544 3.0 21:58:44 10° N 22:02:21 73° E 22:03:05 52° SE
NOSS 3-4 (A) 4.0 21:56:24 10° NW 22:03:15 65° SW 22:07:31 28° SSE
NOSS 3-4 (C) 4.0 21:56:30 10° NW 22:03:21 65° SW 22:07:38 28° SSE
USA 305 3.4 22:01:45 10° WNW 22:05:47 41° SW 22:06:30 37° S
Meteor 1-27 Rocket 3.8 22:05:25 25° S 22:08:57 87° ESE 22:14:55 10° NNE
SL-24 DEB 4.4 22:07:10 30° SSW 22:09:20 66° W 22:13:57 10° N
Cosmos 1271 Rocket 3.6 22:08:06 21° SW 22:10:28 49° WNW 22:14:24 10° N
SL-8 Rocket 4.3 22:07:24 10° N 22:13:39 57° ENE 22:16:39 30° SE
ATLAS 2AS CENTAUR R/B 2.7 22:09:28 10° NW 22:16:57 82° SW 22:20:40 31° SSE
Cosmos 1707 Rocket 3.6 22:16:19 45° SSE 22:17:27 63° E 22:21:49 10° NNE
USA 215 3.7 22:13:25 10° E 22:19:51 63° NNE 22:26:18 10° WNW
Cosmos 2112 Rocket 4.0 22:15:59 10° NNW 22:21:23 82° WSW 22:23:29 38° SSE
Cosmos 1515 4.0 22:21:30 46° ESE 22:21:45 47° E 22:25:24 10° NNE
ALOS 2 3.7 22:20:18 26° ESE 22:21:46 33° ENE 22:25:44 10° N
BREEZE-M R/B 3.2 22:20:08 10° W 22:21:31 31° W 22:21:31 31° W
Cosmos 2154 Rocket 4.4 22:17:31 10° NNW 22:23:44 58° W 22:27:21 25° SSW
Cosmos 2278 Rocket 3.0 22:18:22 10° SW 22:23:52 52° NW 22:29:26 10° NNE
Gbstr 26 Del rocket 4.1 22:16:38 10° WNW 22:24:12 88° SSW 22:29:05 18° ESE
USA 306 3.8 22:21:08 10° WNW 22:24:56 32° SW 22:25:01 32° SW
Terra 3.2 22:28:43 21° SW 22:31:01 31° W 22:35:16 10° NNW
ERBS 3.0 22:28:05 10° NW 22:31:20 50° NNE 22:32:05 40° ENE
Cosmos 2369 Rocket 3.3 22:32:39 26° ESE 22:33:19 26° ESE 22:37:56 10° NE
Cosmos 1943 Rocket 2.5 22:33:19 38° SSE 22:34:47 47° ESE 22:40:08 10° NE
Okean 1 3.4 22:35:17 55° SE 22:35:43 59° E 22:39:39 10° NNE
Cosmos 1340 Rocket 3.3 22:32:20 10° NNW 22:36:20 53° W 22:37:15 43° SW
SL-24 R/B - RUBIN 2 4.0 22:34:14 10° NW 22:39:46 68° SW 22:41:12 45° S
Meteor 2-9 Rocket 4.3 22:34:33 10° N 22:40:24 75° ENE 22:42:35 39° SSE
Cosmos 1959 Rocket 4.5 22:38:05 10° N 22:44:21 75° ENE 22:46:55 37° SSE
SJ 16-02 3.1 22:43:16 10° WSW 22:47:10 30° WNW 22:51:06 10° N
Cosmos 1733 Rocket 3.0 22:43:22 10° NNW 22:47:42 74° W 22:48:36 54° SSW
Cosmos 1680 Rocket 4.2 22:43:42 10° NW 22:48:44 44° WSW 22:50:28 33° SSW
Spot 4 3.8 22:47:43 47° S 22:49:09 84° WSW 22:54:03 10° NNW
Cosmos 1937 Rocket 3.4 22:47:48 44° S 22:49:24 73° ESE 22:54:34 10° NNE
Cosmos 1536 4.4 22:46:03 10° NNW 22:49:27 26° W 22:50:40 22° WSW
USA 307 4.5 22:47:36 10° W 22:50:17 22° WSW 22:50:17 22° WSW
Cosmos 44 3.7 22:47:40 10° NW 22:53:00 57° WSW 22:54:21 44° S
Meteor 2-4 Rocket 4.1 22:58:14 38° SE 22:59:55 50° E 23:05:21 10° NNE
Cosmos 1908 Rocket 3.8 22:57:05 10° N 23:01:33 62° ENE 23:02:27 50° SE
Cosmos 1461 3.6 23:02:50 43° ESE 23:02:50 43° ESE 23:07:10 10° NE
Cosmos 1743 3.9 22:59:37 10° NNW 23:03:04 31° W 23:03:39 30° WSW
Thor Agena Rocket 4.5 22:59:07 10° NNE 23:03:52 34° E 23:04:55 31° ESE
Cosmos 858 Rocket 4.4 23:02:05 42° SSW 23:03:54 89° ESE 23:09:10 10° NNE
Cosmos 1975 2.6 23:00:00 10° N 23:04:00 90° WSW 23:04:22 73° S
Cosmos 1818 3.6 22:58:34 10° NW 23:04:01 67° SW 23:05:31 46° S
RESURS DK-1 3.4 23:00:15 10° NNW 23:04:12 40° NE 23:05:36 30° E
Cosmos 2181 Rocket 3.9 23:02:05 37° S 23:04:41 88° W 23:10:52 10° N
Cosmos 2366 rocket 4.0 23:06:34 10° NNW 23:12:42 72° W 23:15:06 39° SSW
COBE Rocket 4.0 23:11:51 47° SSE 23:13:18 77° ENE 23:18:28 10° N
Cosmos 1821 Rocket 4.3 23:07:17 10° N 23:13:38 59° ENE 23:16:21 34° SE
Cosmos 967 Rocket 4.4 23:12:01 28° SW 23:15:31 90° E 23:21:51 10° NE
Gblst 52 Del rocket 4.4 23:09:35 10° WNW 23:16:30 75° SSW 23:20:01 27° ESE
Cosmos 1238 Rocket 4.4 23:13:49 10° NNW 23:19:50 48° W 23:21:58 33° SW
Cosmos 2297 4.0 23:18:27 27° SW 23:21:36 67° WNW 23:27:17 10° NNE
Meteor 1-18 Rocket 4.3 23:22:01 40° SSW 23:24:07 75° WNW 23:29:45 10° N
Cosmos 1898 Rocket 4.4 23:24:20 22° WSW 23:27:32 46° WNW 23:32:41 10° NNE
Cosmos 2084 Rocket 4.2 23:24:32 10° WNW 23:28:13 38° WSW 23:28:13 38° WSW
SL-27 R/B 3.1 23:28:18 10° NNW 23:31:28 44° ENE 23:31:28 44° ENE
Cosmos 1862 Rocket 4.3 23:30:52 36° WSW 23:31:59 44° WNW 23:36:09 10° N
Cosmos 1703 Rocket 3.5 23:31:41 63° SSE 23:32:13 72° E 23:36:38 10° NNE
Cosmos 1782 Rocket 3.6 23:28:47 10° N 23:33:16 72° E 23:34:00 58° SE
Cosmos 2218 Rocket 4.5 23:27:34 10° NNW 23:33:36 51° W 23:36:03 33° SW
ATLAS CENTAUR R/B 3.1 23:36:43 18° E 23:36:43 18° E 23:38:24 10° ENE
Cosmos 2150 Rocket 4.4 23:38:06 44° SE 23:39:11 50° ESE 23:44:19 10° NNE
Cosmos 2082 Rocket 4.4 23:38:13 10° WNW 23:40:09 12° W 23:41:48 10° WSW
Okean 3 3.9 23:43:14 47° ESE 23:43:38 49° E 23:47:45 10° NNE
Cosmos 372 Rocket 4.1 23:48:14 39° SW 23:50:00 65° WNW 23:55:06 10° NNE
SeaSat 1 2.7 23:46:09 10° NE 23:50:58 49° ESE 23:51:43 45° SE
Cosmos 468 4.5 23:47:08 10° NNW 23:52:25 72° WSW 23:53:40 51° S
BREEZE-M DEB (TANK) 3.9 23:52:40 10° WNW 23:54:36 25° WNW 23:54:36 25° WNW
Cosmos 1378 3.1 23:56:20 71° E 23:56:20 71° E 23:59:58 10° NNE
